Northeast Philadelphia, PA

2:42 AM EDT on May 30, 2020 (GMT -0400)
Northeast Philadelphia

Weather History for KPNE - December, 2019

Change the Weather History Date:

Wednesday, December 4, 2019

  Actual Average Record
Temperature  
Mean Temperature 40 °F -  
Max Temperature 44 °F 47 °F 72 °F (1998)
Min Temperature 36 °F 31 °F 18 °F (2002)
Degree Days  
Heating Degree Days 25    
Moisture  
Dew Point 31 °F    
Average Humidity 72    
Maximum Humidity 83    
Minimum Humidity 53    
Precipitation  
Precipitation 0.04 in - - ()
Sea Level Pressure  
Sea Level Pressure 29.59 in    
Wind  
Wind Speed 6 mph ()    
Max Wind Speed 10 mph    
Max Gust Speed -    
Visibility 8.1 miles    
Events Rain , Snow    
Averages and records for this station are not official NWS values.
T = Trace of Precipitation, MM = Missing Value Source: Averaged Metar Reports

Daily Weather History Graph

Daily Weather History Graph

Search for Another Location

Airport or City:

Astronomy

Dec. 04, 2019 Rise Set
Actual Time 7:05 AM EST 4:34 PM EST
Civil Twilight 6:35 AM EST 5:04 PM EST
Nautical Twilight 6:01 AM EST 5:38 PM EST
Astronomical Twilight 5:28 AM EST 6:11 PM EST
Moon 1:00 PM EST (12/4) No Moon Set
Length of Visible Light 10h 29m
Length of Day
9h 29m
First Quarter, 54% of the Moon is Illuminated
Dec 4
First Quarter
Dec 12
Full
Dec 18
Last Quarter
Dec 26
New
Jan 2
First Quarter

Hourly Weather History & Observations

Time (EST) Temp. Windchill Dew Point Humidity Pressure Visibility Wind Dir Wind Speed Gust Speed Precip Events Conditions
12:54 AM 36.0 °F 31.1 °F 25.0 °F 64% 29.65 in 10.0 mi West 5.8 mph - N/A   Clear
5:54 AM 37.0 °F 32.4 °F 28.9 °F 73% 29.63 in 8.0 mi SW 5.8 mph - 0.00 in Snow Light Snow
7:54 AM 37.9 °F 33.5 °F 32.0 °F 79% 29.63 in 3.0 mi WSW 5.8 mph - 0.00 in   Overcast
8:45 AM 37.9 °F 32.1 °F 32.0 °F 79% 29.63 in 3.0 mi WSW 8.1 mph - N/A   Overcast
8:54 AM 39.0 °F 33.4 °F 32.0 °F 76% 29.63 in 3.0 mi WSW 8.1 mph - N/A   Overcast
9:54 AM 39.0 °F 34.0 °F 32.0 °F 76% 29.62 in 8.0 mi WSW 6.9 mph - N/A   Overcast
10:54 AM 41.0 °F 35.8 °F 32.0 °F 70% 29.62 in 10.0 mi WSW 8.1 mph - N/A   Overcast
11:54 AM 42.1 °F 36.1 °F 30.9 °F 65% 29.58 in 10.0 mi West 10.4 mph - N/A   Overcast
12:54 PM 43.0 °F 39.5 °F 28.9 °F 58% 29.55 in 10.0 mi WSW 5.8 mph - N/A   Overcast
1:54 PM 43.0 °F 38.8 °F 28.9 °F 58% 29.53 in 10.0 mi West 6.9 mph - N/A   Overcast
2:54 PM 44.1 °F 40.1 °F 28.9 °F 55% 29.53 in 10.0 mi West 6.9 mph - N/A   Overcast
3:54 PM 44.1 °F 39.5 °F 28.0 °F 53% 29.54 in 10.0 mi WSW 8.1 mph - N/A   Overcast
4:54 PM 42.1 °F 37.1 °F 30.9 °F 65% 29.56 in 10.0 mi West 8.1 mph - N/A   Overcast
6:54 PM 39.0 °F 33.4 °F 34.0 °F 82% 29.59 in 5.0 mi WSW 8.1 mph - 0.02 in Rain Light Rain
7:19 PM 39.0 °F 34.0 °F 34.0 °F 82% 29.59 in 7.0 mi WSW 6.9 mph - 0.01 in Rain Light Rain
7:54 PM 39.0 °F 34.0 °F 34.0 °F 82% 29.60 in 8.0 mi SW 6.9 mph - 0.02 in   Overcast
8:04 PM 39.0 °F 32.8 °F 34.0 °F 82% 29.59 in 8.0 mi WSW 9.2 mph - N/A   Overcast
9:54 PM 39.0 °F 32.3 °F 33.1 °F 79% 29.60 in 10.0 mi West 10.4 mph - N/A   Mostly Cloudy
10:54 PM 37.9 °F 32.7 °F 33.1 °F 83% 29.59 in 9.0 mi West 6.9 mph - N/A   Clear
11:54 PM 37.0 °F 32.4 °F 32.0 °F 82% 29.58 in 9.0 mi West 5.8 mph - N/A   Mostly Cloudy